Preview of NWS' New Version of Forecast
This preview is not operational and should not be used for support decisions.

Regional Weather Roundup (RWR)

Issued by National Weather Service (NWS)

                            
000
ASUS44 KMEG 212000
RWRTN 
TENNESSEE HOURLY STATE WEATHER ROUNDUP
NATIONAL WEATHER SERVICE MEMPHIS TN
300 PM CDT SUN JUL 21 2019

TNZ002-004-019-021-049-052-054-088>092-212100-
WEST TENNESSEE
  
CITY           SKY/WX    TMP DP  RH WIND       PRES   REMARKS
MEMPHIS INTL   PTSUNNY   86  76  71 SE8       29.97S HX  96           
NWS MEMPHIS      N/A     81 N/A N/A MISG        N/A                   
JACKSON        PTSUNNY   85  77  77 S8        29.98S HX  95           
DYERSBURG      FAIR      90  78  68 VRB5      29.96F HX 104           
$$

TNZ008-025-027-028-033-062-065-066-212100-
NORTH MIDDLE TENNESSEE
  
CITY           SKY/WX    TMP DP  RH WIND       PRES   REMARKS
NASHVILLE      PTSUNNY   86  75  69 SW6       29.99F HX  95           
CLARKSVILLE    FAIR      88  76  67 S10       29.96F HX  99           
SMYRNA         PTSUNNY   85  75  72 SW5       30.00F HX  93           
CROSSVILLE     FAIR      78  68  71 VRB7      30.08S                  
$$

TNZ061-075-076-078-094-096-097-212100-
SOUTH MIDDLE TENNESSEE
  
CITY           SKY/WX    TMP DP  RH WIND       PRES   REMARKS
$$

TNZ017-018-042-046-047-212100-
NORTHEAST TENNESSEE
  
CITY           SKY/WX    TMP DP  RH WIND       PRES   REMARKS
TRI CITIES     FAIR      89  69  51 VRB3      30.02F HX  93           
$$

TNZ012-013-036-069-073-074-212100-
CENTRAL EAST TENNESSEE
  
CITY           SKY/WX    TMP DP  RH WIND       PRES   REMARKS
KNOXVILLE      FAIR      90  69  50 SW13      30.00F HX  94           
OAK RIDGE      FAIR      89  71  55 VRB3      30.02F HX  95           
$$

TNZ083-085-099-212100-
SOUTHEAST TENNESSEE
  
CITY           SKY/WX    TMP DP  RH WIND       PRES   REMARKS
CHATTANOOGA    PTSUNNY   88  72  58 SE3       30.01F HX  94           
$$

SKY/WX REPORTED AS FAIR MEANS FEW OR NO CLOUDS BELOW
12 THOUSAND FEET.